[Date Prev][Date Next][Thread Prev][Thread Next] - [Date Index][Thread Index][Author Index]

2 Line ISS Keps 1-11



ISS
1 25544U 98067A   05011.01337566  .00026950  00000-0  20003-3 0  5602
2 25544  51.6410 344.5131 0003247 179.4772 252.4596 15.72656399350973
----
Via the sarex mailing list at AMSAT.ORG courtesy of AMSAT-NA.
To unsubscribe, send "unsubscribe sarex" to Majordomo@amsat.org



AMSAT Top AMSAT Home